Stations météo

réclame
Mon MeteoGroup
Herstmonceux, Grande-Bretagne (3882): Température de l'air & dewpoint: 17.07.2019 00:00:00 - 23.07.2019 00:00:00 (BST)Herstmonceux, Grande-Bretagne (3882): Température de l'air -20cm & Température de l'air -100cm: 17.07.2019 00:00:00 - 23.07.2019 00:00:00 (BST)Herstmonceux, Grande-Bretagne (3882): Vitesse du vent & gusts: 17.07.2019 00:00:00 - 23.07.2019 00:00:00 (BST)Herstmonceux, Grande-Bretagne (3882): Direction du vent: 17.07.2019 00:00:00 - 23.07.2019 00:00:00 (BST)Herstmonceux, Grande-Bretagne (3882): reduced air pressure: 17.07.2019 00:00:00 - 23.07.2019 00:00:00 (BST)Herstmonceux, Grande-Bretagne (3882): visibility: 17.07.2019 00:00:00 - 23.07.2019 00:00:00 (BST)Herstmonceux, Grande-Bretagne (3882): Ensoleillement: 17.07.2019 00:00:00 - 23.07.2019 00:00:00 (BST)Herstmonceux, Grande-Bretagne (3882): Quantités de précipitations: 17.07.2019 00:00:00 - 23.07.2019 00:00:00 (BST)
Date & Time tt [°C] td [°C] tt -20cm [°C] tt -100cm [°C] ff [km/h] ff [knt] fx [km/h] fx [knt] dd ppp [hPa] vv [km] sd [min] rr [mm]
23.07.2019 00:00:00 - - - - - - - - - - - - -
22.07.2019 23:00:00 15,9 14,8 - - 2 1 - - E 1022,1 11 0 0,0
22.07.2019 22:00:00 17,3 15,5 - - 4 2 - - WSW 1022,1 18 0 0,0
22.07.2019 21:00:00 19,3 16,2 - - 5 3 - - W 1022,0 30 42 0,0
22.07.2019 20:00:00 21,9 16,7 - - 5 3 - - WSW 1021,8 45 60 0,0
22.07.2019 19:00:00 22,6 16,8 - - 9 5 - - WSW 1022,0 30 60 0,0
22.07.2019 18:00:00 23,1 17,5 - - 9 5 - - WSW 1022,2 45 60 0,0
22.07.2019 17:00:00 22,8 17,5 - - 13 7 - - WSW 1022,6 40 60 0,0
22.07.2019 16:00:00 23,4 18,1 - - 11 6 - - WSW 1023,0 30 42 0,0
22.07.2019 15:00:00 22,4 17,1 - - 15 8 - - WSW 1023,3 40 54 0,0
22.07.2019 14:00:00 23,4 18,1 - - 11 6 - - W 1023,3 30 54 0,0
22.07.2019 13:00:00 22,2 18,1 - - 13 7 - - W 1023,7 19 42 0,0
22.07.2019 12:00:00 21,4 17,4 - - 13 7 - - WSW 1023,8 21 48 0,0
22.07.2019 11:00:00 20,8 16,4 - - 11 6 - - W 1023,6 30 60 0,0
22.07.2019 10:00:00 20,3 15,6 19,2 17,7 15 8 - - WSW 1023,4 35 60 0,0
22.07.2019 09:00:00 18,7 15,8 - - 13 7 - - WSW 1023,5 30 48 0,0
22.07.2019 08:00:00 17,9 16,4 - - 9 5 - - WSW 1023,2 20 12 0,0
22.07.2019 07:00:00 16,6 15,9 - - 5 3 - - SW 1022,9 10 0 0,0
22.07.2019 06:00:00 16,2 15,3 - - 8 4 - - WSW 1022,7 14 0 0,0
22.07.2019 05:00:00 15,5 15,1 - - 9 5 - - WSW 1022,5 14 0 0,0
22.07.2019 04:00:00 14,2 13,8 - - 5 3 - - WSW 1022,8 30 0 0,0
22.07.2019 03:00:00 13,5 13,2 - - 5 3 - - SW 1022,7 24 0 0,0
22.07.2019 02:00:00 12,9 12,2 - - 4 2 - - SSW 1023,0 20 0 0,0
22.07.2019 01:00:00 13,8 13,1 - - 4 2 - - SSW 1023,2 11 - 0,0
22.07.2019 00:00:00 14,1 13,1 - - 5 3 - - WSW 1023,3 17 0 0,0
21.07.2019 23:00:00 15,1 13,9 - - 4 2 - - WSW 1023,2 21 0 0,0
21.07.2019 22:00:00 15,4 13,9 - - 5 3 - - SW 1023,1 21 0 0,0
21.07.2019 21:00:00 16,5 13,7 - - 8 4 - - WSW 1022,7 45 0 0,0
21.07.2019 20:00:00 18,2 13,5 - - 8 4 - - WSW 1022,7 35 42 0,0
21.07.2019 19:00:00 19,9 12,9 - - 9 5 - - WSW 1022,5 35 54 0,0
21.07.2019 18:00:00 19,6 12,6 - - 13 7 - - WSW 1022,4 50 18 0,0
21.07.2019 17:00:00 20,4 12,6 - - 13 7 - - SW 1022,4 45 60 0,0
21.07.2019 16:00:00 20,6 13,0 - - 15 8 - - WSW 1022,6 45 60 0,0
21.07.2019 15:00:00 20,8 14,7 - - 15 8 - - SW 1022,7 29 54 0,0
21.07.2019 14:00:00 20,7 15,0 - - 11 6 - - WSW 1022,6 35 6 0,0
21.07.2019 13:00:00 19,9 13,8 - - 13 7 - - WSW 1022,6 45 12 0,0
21.07.2019 12:00:00 19,6 13,2 - - 13 7 - - SW 1022,2 35 54 0,0
21.07.2019 11:00:00 20,2 12,7 - - 11 6 - - WSW 1021,6 30 54 0,0
21.07.2019 10:00:00 19,1 12,4 19,0 17,7 9 5 - - W 1021,4 40 60 0,0
21.07.2019 09:00:00 17,2 13,2 - - 8 4 - - W 1021,1 30 60 0,0
21.07.2019 08:00:00 15,2 12,9 - - 8 4 - - WNW 1020,7 35 30 0,0
21.07.2019 07:00:00 13,5 12,1 - - 5 3 - - W 1020,2 24 0 0,0
21.07.2019 06:00:00 12,6 11,3 - - 5 3 - - WNW 1019,4 21 0 0,0
21.07.2019 05:00:00 12,2 10,8 - - 4 2 - - W 1018,8 35 0 0,0
21.07.2019 04:00:00 12,2 10,5 - - 5 3 - - W 1018,3 35 0 0,0
21.07.2019 03:00:00 12,4 10,4 - - 5 3 - - W 1017,8 45 0 0,0
21.07.2019 02:00:00 13,6 11,2 - - 5 3 - - W 1017,2 35 0 0,0
21.07.2019 01:00:00 14,4 12,1 - - 5 3 - - WNW 1016,8 35 - 0,0
21.07.2019 00:00:00 14,9 13,6 - - 4 2 - - WNW 1016,3 16 0 0,0
20.07.2019 23:00:00 15,6 14,4 - - 5 3 - - W 1015,6 12 0 0,0
20.07.2019 22:00:00 16,5 14,9 - - 8 4 - - W 1014,8 13 0 0,0
20.07.2019 21:00:00 17,2 14,7 - - 11 6 - - WSW 1013,9 14 24 0,0
20.07.2019 20:00:00 18,1 14,3 - - 16 9 - - W 1013,1 16 60 0,0
20.07.2019 19:00:00 19,0 13,7 - - 18 10 - - WSW 1012,4 28 60 0,0
20.07.2019 18:00:00 20,2 14,5 - - 15 8 48 26 W 1011,7 23 60 0,0
20.07.2019 17:00:00 20,3 14,1 - - 18 10 48 26 W 1011,3 24 60 0,0
20.07.2019 16:00:00 20,3 15,2 - - 21 11 46 25 WSW 1010,7 26 60 0,0
20.07.2019 15:00:00 20,7 16,2 - - 15 8 - - WSW 1010,3 18 48 0,0
20.07.2019 14:00:00 19,6 15,9 - - 22 12 - - SW 1010,0 14 24 0,0
20.07.2019 13:00:00 19,4 15,9 - - 21 11 48 26 WSW 1009,4 15 42 0,0
20.07.2019 12:00:00 19,1 16,7 - - 15 8 - - WSW 1008,7 15 12 0,0
20.07.2019 11:00:00 17,8 17,2 - - 13 7 - - WSW 1008,3 6 0 0,0
20.07.2019 10:00:00 17,4 16,8 18,9 17,7 16 9 - - WSW 1007,9 6 0 0,0
20.07.2019 09:00:00 17,6 17,0 - - 22 12 - - SW 1007,5 17 0 0,0
20.07.2019 08:00:00 17,5 17,2 - - 16 9 - - SW 1007,0 10 0 0,0
20.07.2019 07:00:00 16,7 16,3 - - 11 6 - - SW 1007,1 15 0 0,0
20.07.2019 06:00:00 16,6 16,3 - - 16 9 - - SW 1007,2 9 0 0,0
20.07.2019 05:00:00 16,0 15,7 - - 5 3 - - SSW 1007,3 13 0 0,2
20.07.2019 04:00:00 16,3 16,1 - - 9 5 - - SSW 1008,2 13 0 3,4
20.07.2019 03:00:00 16,4 16,0 - - 11 6 - - W 1008,2 5 0 8,6
20.07.2019 02:00:00 17,0 16,9 - - 9 5 - - SW 1008,6 20 0 0,6
20.07.2019 01:00:00 17,1 17,0 - - 9 5 - - WSW 1009,6 3,7 - 10,2
20.07.2019 00:00:00 17,3 17,1 - - 8 4 - - S 1009,2 2,1 0 3,2
19.07.2019 23:00:00 17,3 17,0 - - 2 1 - - SSE 1009,6 1,1 0 0,8
19.07.2019 22:00:00 17,4 17,1 - - 8 4 - - WSW 1010,1 5 0 0,0
19.07.2019 21:00:00 17,5 17,3 - - 9 5 - - SW 1010,9 7 0 0,8
19.07.2019 20:00:00 17,4 17,0 - - 13 7 - - SW 1011,1 3,6 0 0,6
19.07.2019 19:00:00 18,4 16,4 - - 15 8 - - SW 1011,1 17 0 0,0
19.07.2019 18:00:00 18,9 16,3 - - 21 11 - - SW 1011,5 30 0 0,0
19.07.2019 17:00:00 18,4 16,0 - - 18 10 - - SW 1012,1 29 0 0,0
19.07.2019 16:00:00 17,3 16,0 - - 18 10 - - SW 1012,4 4,0 0 0,2
19.07.2019 15:00:00 18,1 15,2 - - 16 9 - - SW 1012,6 30 0 0,2
19.07.2019 14:00:00 17,4 14,5 - - 13 7 - - SW 1012,9 9 0 0,0
19.07.2019 13:00:00 18,4 14,2 - - 15 8 - - SW 1012,9 30 0 0,0
19.07.2019 12:00:00 17,5 13,1 - - 16 9 - - SW 1013,4 35 0 0,0
19.07.2019 11:00:00 17,5 14,1 - - 16 9 - - SW 1013,5 35 0 0,0
19.07.2019 10:00:00 17,3 13,9 19,0 17,9 15 8 - - WSW 1013,6 23 6 0,0
19.07.2019 09:00:00 16,1 15,5 - - 8 4 - - SSW 1013,4 11 0 0,0
19.07.2019 08:00:00 14,2 13,4 - - 4 2 - - E 1013,7 22 0 0,0
19.07.2019 07:00:00 12,1 11,8 - - 4 2 - - ENE 1013,7 20 0 0,0
19.07.2019 06:00:00 10,9 10,6 - - 2 1 - - SW 1013,5 12 0 0,0
19.07.2019 05:00:00 10,3 9,4 - - 2 1 - - E 1013,4 30 0 0,0
19.07.2019 04:00:00 11,4 10,0 - - 2 1 - - S 1013,4 16 0 0,0
19.07.2019 03:00:00 13,4 10,6 - - 0 0 - - N 1013,4 30 0 0,0
19.07.2019 02:00:00 14,0 11,8 - - 5 3 - - WNW 1013,5 25 0 0,0
19.07.2019 01:00:00 14,4 12,7 - - 5 3 - - WNW 1013,6 24 - 0,0
19.07.2019 00:00:00 14,9 13,2 - - 8 4 - - W 1013,3 19 0 0,0
18.07.2019 23:00:00 15,8 14,0 - - 8 4 - - W 1013,1 21 0 0,0
18.07.2019 22:00:00 16,6 14,1 - - 8 4 - - WSW 1012,8 20 0 0,0
18.07.2019 21:00:00 17,4 14,0 - - 9 5 - - WSW 1012,3 18 0 0,0
18.07.2019 20:00:00 18,3 13,1 - - 9 5 - - WSW 1011,8 26 0 0,0
18.07.2019 19:00:00 18,6 13,2 - - 11 6 - - WSW 1011,6 30 0 0,0
18.07.2019 18:00:00 19,1 13,9 - - 15 8 - - W 1011,4 50 0 0,0
18.07.2019 17:00:00 19,7 14,1 - - 16 9 - - WSW 1011,2 35 6 0,0
18.07.2019 16:00:00 20,1 14,2 - - 15 8 - - WSW 1011,0 30 0 0,0
18.07.2019 15:00:00 19,3 15,6 - - 13 7 - - WSW 1011,2 26 0 0,0
18.07.2019 14:00:00 19,2 16,3 - - 13 7 - - WSW 1011,0 21 0 0,0
18.07.2019 13:00:00 18,0 15,1 - - 13 7 - - W 1010,8 12 0 0,0
18.07.2019 12:00:00 18,1 16,9 - - 11 6 - - W 1010,3 19 0 0,0
18.07.2019 11:00:00 16,8 16,0 - - 15 8 - - SW 1010,4 2,6 0 0,0
18.07.2019 10:00:00 16,1 15,9 19,7 17,9 16 9 - - SW 1010,6 2,4 0 0,0
18.07.2019 09:00:00 16,1 15,6 - - 13 7 - - WSW 1010,8 3,2 0 0,0
18.07.2019 08:00:00 16,4 15,1 - - 11 6 - - SW 1011,0 9 0 0,0
18.07.2019 07:00:00 16,6 15,6 - - 11 6 - - SW 1010,7 10 0 0,0
18.07.2019 06:00:00 15,5 15,4 - - 8 4 - - WSW 1010,8 7 0 0,0
18.07.2019 05:00:00 15,1 14,8 - - 4 2 - - WSW 1010,9 4,3 0 0,0
18.07.2019 04:00:00 15,3 14,8 - - 4 2 - - SW 1011,0 6 0 0,0
18.07.2019 03:00:00 15,6 15,0 - - 5 3 - - WSW 1011,4 6 0 0,0
18.07.2019 02:00:00 15,3 14,5 - - 5 3 - - WSW 1011,9 5 0 0,0
18.07.2019 01:00:00 15,6 14,5 - - 5 3 - - WSW 1012,1 8 - 0,0
18.07.2019 00:00:00 15,8 14,5 - - 8 4 - - WSW 1012,5 11 0 0,0
17.07.2019 23:00:00 15,8 14,1 - - 8 4 - - W 1012,6 14 0 0,0
17.07.2019 22:00:00 15,2 12,5 - - 4 2 - - WSW 1012,9 27 0 0,0
17.07.2019 21:00:00 16,5 13,0 - - 8 4 - - WSW 1012,8 30 0 0,0
17.07.2019 20:00:00 17,5 12,9 - - 8 4 - - SW 1013,0 40 0 0,0
17.07.2019 19:00:00 18,6 12,2 - - 9 5 - - WSW 1013,3 45 0 0,0
17.07.2019 18:00:00 19,3 13,4 - - 9 5 - - WSW 1013,4 40 6 0,0
17.07.2019 17:00:00 20,0 11,8 - - 11 6 - - SW 1013,5 35 0 0,0
17.07.2019 16:00:00 20,7 11,4 - - 11 6 - - SW 1013,9 35 18 0,0
17.07.2019 15:00:00 21,6 11,2 - - 9 5 - - SW 1014,3 30 6 0,0
17.07.2019 14:00:00 21,8 9,8 - - 11 6 - - SW 1014,6 30 48 0,0
17.07.2019 13:00:00 22,2 13,4 - - 11 6 - - S 1014,9 27 60 0,0
17.07.2019 12:00:00 21,6 12,6 - - 8 4 - - S 1015,2 30 60 0,0
17.07.2019 11:00:00 21,0 13,9 - - 8 4 - - S 1015,5 27 60 0,0
17.07.2019 10:00:00 19,3 13,3 19,4 17,9 9 5 - - S 1015,8 17 60 0,0
17.07.2019 09:00:00 18,4 14,0 - - 8 4 - - SSW 1015,9 25 60 0,0
17.07.2019 08:00:00 15,9 12,8 - - 4 2 - - SE 1015,8 40 36 0,0
17.07.2019 07:00:00 12,5 12,5 - - 4 2 - - ENE 1015,9 20 0 0,0
17.07.2019 06:00:00 11,0 10,8 - - 4 2 - - NE 1016,2 14 0 0,0
17.07.2019 05:00:00 10,7 10,0 - - 4 2 - - ENE 1016,5 9 0 0,0
17.07.2019 04:00:00 11,8 10,9 - - 5 3 - - NE 1016,7 13 0 0,0
17.07.2019 03:00:00 11,2 10,7 - - 2 1 - - N 1017,1 9 0 0,0
17.07.2019 02:00:00 11,4 10,6 - - 2 1 - - N 1017,6 7 0 0,0
17.07.2019 01:00:00 13,0 11,2 - - 5 3 - - N 1017,8 22 - 0,0
17.07.2019 00:00:00 14,1 11,0 - - 2 1 - - W 1017,7 16 0 0,0

tt = Température de l'air
td = dewpoint
tt -20cm = Température de l'air -20cm
tt -100cm = Température de l'air -100cm
ff = Vitesse du vent
fx = gusts
dd = Direction du vent
ppp = reduced air pressure
vv = visibility
sd = Ensoleillement
rr = Quantités de précipitations

stations d'obs. à proximité